Regional Weather Roundup
Issued by NWS

Home | Current Version | Previous Version | Text Only | Print | Product List | Glossary Off
Versions: 1 2 3 4 5 6 7 8 9 10 11 12 13 14 15 16 17 18 19 20 21 22 23 24 25 26 27 28 29 30 31 32 33 34 35 36 37 38 39 40 41 42 43 44 45 46 47 48 49 50

000
ASUS43 KFSD 210510
RWRSD

WEATHER ROUNDUP FOR SOUTH DAKOTA
NATIONAL WEATHER SERVICE SIOUX FALLS SD
1100 PM CST MON FEB 20 2017

NOTE: "FAIR" INDICATES FEW OR NO CLOUDS BELOW 12,000 FEET WITH NO
SIGNIFICANT WEATHER AND/OR OBSTRUCTIONS TO VISIBILITY.


SDZ001>005-009-010-012>017-210600-
NORTHWEST AND NORTH CENTRAL SOUTH DAKOTA

CITY           SKY/WX    TMP DP  RH WIND       PRES   REMARKS
BUFFALO          N/A     45  28  51 S12       29.63R
FAITH            N/A     42  29  59 S15       29.73F
MOBRIDGE       CLOUDY    37  31  78 SE5       29.74F
$$

SDZ012>016-024>037-041>051-057-063-072>074-210600-
SOUTHWEST AND SOUTH CENTRAL SOUTH DAKOTA

CITY           SKY/WX    TMP DP  RH WIND       PRES   REMARKS
RAPID CTY ARPT CLOUDY    54  30  40 S10       29.77F
PIERRE         PTCLDY    37  28  70 SE9       29.81R
CUSTER         CLOUDY    45  27  49 W26G37    29.86F
ELLSWORTH AFB  CLOUDY    52  30  42 S6        29.76F
PHILIP         CLEAR     45  27  49 SW9       29.78F
PINE RIDGE     MOCLDY    46  31  55 S7        29.87S
SPEARFISH      FAIR      55  27  33 SW25G33   29.75R
WINNER         FAIR      45  28  51 S7        29.86R
$$

SDZ004>011-016>023-039-040-210600-
NORTHEAST SOUTH DAKOTA

CITY           SKY/WX    TMP DP  RH WIND       PRES   REMARKS
ABERDEEN       CLEAR     33  30  88 S6        29.81F WCI  28
WATERTOWN      CLEAR     32  31  96 S3        29.85R
BROOKINGS      CLEAR     34  33  96 S3        29.88R
SISSETON         N/A     40  35  83 W6        29.82R
$$

SDZ017-020-022-023-036>040-048>070-210600-
SOUTHEAST SOUTH DAKOTA

CITY           SKY/WX    TMP DP  RH WIND       PRES   REMARKS
SIOUX FALLS    CLEAR     33  32  96 CALM      29.90S
HURON          CLEAR     33  33 100 SE5       29.85F WCI  29
CHAMBERLAIN    CLEAR     37  32  82 SE3       29.86R
MITCHELL       CLEAR     38  35  89 S6        29.89R
YANKTON        CLEAR     37  34  87 CALM      29.90S
$$

ABBREVIATIONS USED IN REMARKS
   TC - TEMPERATURE IN CELSIUS
  WCI - WIND CHILL INDEX
   HX - HEAT INDEX
  VSB - VISIBILITY





USA.gov is the U.S. government's official web portal to all federal, state and local government web resources and services.